Location: Unspecified
(0.0000°N, 0.0000°E)
Time: 21:54:36
(UTC+00:00)

Vanguard 1 Rocket - Pass Details

Date: 15 December 2017
Orbit: 656 x 4222 km, 34.3° (Epoch: 17 January)

Event Time Altitude Azimuth Distance (km) Brightness Sun altitude
Exits shadow 00:45:40 54° 119° (ESE) 4,277 10.5 -63.7°
Drops below altitude 10° 00:58:21 10° 125° (SE) 5,872 11.8 -62.1°
Sets 01:01:57 0° 125° (SE) 6,522 12.1 -61.6°
